This is the latest recevied weather packets stored in our database for station/object WB3EGK. If no packets are shown the sender has not sent any weather packets the latest 10 day(s).
| Time | Temp. | Humidity | Pressure | Rain* | Wind** | Luminosity | Snow |
|---|---|---|---|---|---|---|---|
| 1777761039 | 4.44° C | 1% | 1013.5 hPa | 0 mm | - | 72 W/m² | - |
| 1777760736 | 4.44° C | 1% | 1013.3 hPa | 0 mm | - | 68 W/m² | - |
| 1777760432 | 4.44° C | 1% | 1013.4 hPa | 0 mm | - | 78 W/m² | - |
| 1777760128 | 5° C | 1% | 1013.2 hPa | 0 mm | - | 91 W/m² | - |
| 1777759826 | 5° C | 1% | 1013.3 hPa | 0 mm | - | 99 W/m² | - |
| 1777759521 | 5° C | 1% | 1013.3 hPa | 0 mm | - | 104 W/m² | - |
| 1777759218 | 5° C | 1% | 1013.2 hPa | 0 mm | - | 110 W/m² | - |
| 1777758915 | 5° C | 1% | 1013.2 hPa | 0 mm | - | 113 W/m² | - |
| 1777758612 | 5° C | 1% | 1013.3 hPa | 0 mm | - | 110 W/m² | - |
| 1777758309 | 5° C | 1% | 1013.2 hPa | 0 mm | - | 104 W/m² | - |
| 1777758007 | 5° C | 1% | 1013.2 hPa | 0 mm | - | 102 W/m² | - |
| 1777757703 | 5° C | 1% | 1013.2 hPa | 0 mm | - | 107 W/m² | - |
| 1777757401 | 5° C | 1% | 1013.2 hPa | 0 mm | - | 104 W/m² | - |
| 1777757099 | 5° C | 1% | 1013.1 hPa | 0 mm | - | 108 W/m² | - |
| 1777756796 | 5° C | 1% | 1013 hPa | 0 mm | - | 132 W/m² | - |
| 1777756492 | 5° C | 1% | 1013.1 hPa | 0 mm | - | 166 W/m² | - |
| 1777756190 | 5° C | 1% | 1012.9 hPa | 0 mm | - | 144 W/m² | - |
| 1777755886 | 5.56° C | 1% | 1013 hPa | 0 mm | - | 122 W/m² | - |
| 1777755583 | 5.56° C | 1% | 1012.7 hPa | 0 mm | - | 160 W/m² | - |
| 1777755279 | 5° C | 1% | 1012.9 hPa | 0 mm | - | 179 W/m² | - |
| 1777754977 | 5.56° C | 1% | 1012.8 hPa | 0 mm | - | 200 W/m² | - |
| 1777754674 | 5.56° C | 1% | 1012.9 hPa | 0 mm | - | 153 W/m² | - |
| 1777754372 | 5.56° C | 1% | 1012.8 hPa | 0 mm | - | 140 W/m² | - |
| 1777754069 | 5.56° C | 1% | 1012.8 hPa | 0 mm | - | 159 W/m² | - |
| 1777753764 | 5.56° C | 1% | 1012.9 hPa | 0 mm | - | 193 W/m² | - |
* Rain latest hour (hover to see other rain measurements)
** Current wind speed in m/s (hover to see current wind gust speed)